Satellite: STUDSAT
Catalog number: 36801
Epoch time: 13121.80501815
Element set: 622
Inclination: 098.0443 deg
RA of node: 208.9511 deg
Eccentricity: 0.0012280
Arg of perigee: 193.3127 deg
Mean anomaly: 318.2379 deg
Mean motion: 14.87748399 rev/day
Decay rate: 1.1245e-04 rev/day^2
Epoch rev: 15183
Checksum: 288
Satellite: ALMASAT-1
Catalog number: 38078
Epoch time: 13122.59740869
Element set: 228
Inclination: 069.4809 deg
RA of node: 306.6441 deg
Eccentricity: 0.0709611
Arg of perigee: 205.3929 deg
Mean anomaly: 151.0768 deg
Mean motion: 14.21854272 rev/day
Decay rate: 3.1593e-04 rev/day^2
Epoch rev: 6275
Checksum: 323
Satellite: XATCOBEO
Catalog number: 38082
Epoch time: 13122.25885619
Element set: 118
Inclination: 069.4765 deg
RA of node: 287.4892 deg
Eccentricity: 0.0608859
Arg of perigee: 194.9287 deg
Mean anomaly: 163.3301 deg
Mean motion: 14.47909456 rev/day
Decay rate: 1.19666e-03 rev/day^2
Epoch rev: 6325
Checksum: 354
Satellite: SOMP
Catalog number: 39135
Epoch time: 13122.61299234
Element set: 25
Inclination: 064.8809 deg
RA of node: 351.6631 deg
Eccentricity: 0.0019016
Arg of perigee: 211.0254 deg
Mean anomaly: 148.9578 deg
Mean motion: 14.99878898 rev/day
Decay rate: 3.254e-05 rev/day^2
Epoch rev: 199
Checksum: 319
Satellite: CUBEBUG-1
Catalog number: 39154
Epoch time: 13121.85613652
Element set: 18
Inclination: 098.3619 deg
RA of node: 197.8780 deg
Eccentricity: 0.0020118
Arg of perigee: 186.8470 deg
Mean anomaly: 173.2465 deg
Mean motion: 14.73712766 rev/day
Decay rate: 6.10e-06 rev/day^2
Epoch rev: 84
Checksum: 299
/EX
SB KEPS @ AMSAT $ORB13122.W
Orbital Elements 13122.WEATHER
HR AMSAT ORBITAL ELEMENTS FOR WEATHER SATELLITES
FROM WA5QGD FORT WORTH,TX May 2, 2013
BID: ORB13122.W
TO ALL RADIO AMATEURS BT
Satellite: NOAA-10
Catalog number: 16969
Epoch time: 13122.13618955
Element set: 336
Inclination: 098.5485 deg
RA of node: 150.9703 deg
Eccentricity: 0.0012373
Arg of perigee: 026.6768 deg
Mean anomaly: 005.2090 deg
Mean motion: 14.27631740 rev/day
Decay rate: 1.84e-06 rev/day^2
Epoch rev: 38537
Checksum: 306
Satellite: NOAA-11
Catalog number: 19531
Epoch time: 13122.27205623
Element set: 338
Inclination: 098.7113 deg
RA of node: 206.3854 deg
Eccentricity: 0.0011580
Arg of perigee: 038.4713 deg
Mean anomaly: 354.4241 deg
Mean motion: 14.15011809 rev/day
Decay rate: 5.1e-07 rev/day^2
Epoch rev: 26963
Checksum: 265
Satellite: NOAA-12
Catalog number: 21263
Epoch time: 13122.50873336
Element set: 808
Inclination: 098.6998 deg
RA of node: 148.2502 deg
Eccentricity: 0.0013394
Arg of perigee: 357.7231 deg
Mean anomaly: 161.5506 deg
Mean motion: 14.25559246 rev/day
Decay rate: 1.36e-06 rev/day^2
Epoch rev: 14204
Checksum: 294
Satellite: MET-3/5
Catalog number: 21655
Epoch time: 13122.13762466
Element set: 679
Inclination: 082.5542 deg
RA of node: 286.8295 deg
Eccentricity: 0.0012491
Arg of perigee: 241.5263 deg
Mean anomaly: 118.4602 deg
Mean motion: 13.17050393 rev/day
Decay rate: -4.34e-06 rev/day^2
Epoch rev: 4387
Checksum: 297
Satellite: MET-2/21
Catalog number: 22782
Epoch time: 13121.50074323
Element set: 727
Inclination: 082.5470 deg
RA of node: 139.9658 deg
Eccentricity: 0.0021662
Arg of perigee: 343.3947 deg
Mean anomaly: 172.1325 deg
Mean motion: 13.83702598 rev/day
Decay rate: 9.9e-07 rev/day^2
Epoch rev: 99318
Checksum: 317
Satellite: OKEAN-4
Catalog number: 23317
Epoch time: 13119.79890713
Element set: 205
Inclination: 082.5378 deg
RA of node: 095.0792 deg
Eccentricity: 0.0021692
Arg of perigee: 030.7525 deg
Mean anomaly: 043.6076 deg
Mean motion: 14.84374196 rev/day
Decay rate: 1.380e-05 rev/day^2
Epoch rev: 176
Checksum: 301
Satellite: NOAA-14
Catalog number: 23455
Epoch time: 13122.44175200
Element set: 293
Inclination: 098.8030 deg
RA of node: 207.5717 deg
Eccentricity: 0.0010569
Arg of perigee: 126.2014 deg
Mean anomaly: 002.7548 deg
Mean motion: 14.13902978 rev/day
Decay rate: 1.12e-06 rev/day^2
Epoch rev: 94590
Checksum: 275
Satellite: NOAA-15
Catalog number: 25338
Epoch time: 13122.16413164
Element set: 713
Inclination: 098.7219 deg
RA of node: 112.6260 deg
Eccentricity: 0.0009509
Arg of perigee: 259.1320 deg
Mean anomaly: 162.6107 deg
Mean motion: 14.25207264 rev/day
Decay rate: 3.19e-06 rev/day^2
Epoch rev: 77828
Checksum: 283
Satellite: RESURS
Catalog number: 25394
Epoch time: 13121.45054750
Element set: 364
Inclination: 098.3576 deg
RA of node: 099.5400 deg
Eccentricity: 0.0002139
Arg of perigee: 063.2004 deg
Mean anomaly: 082.9509 deg
Mean motion: 14.24327946 rev/day
Decay rate: 6.4e-07 rev/day^2
Epoch rev: 76970
Checksum: 293
Satellite: FENGYUN1
Catalog number: 25730
Epoch time: 13121.92223581
Element set: 863
Inclination: 098.8755 deg
RA of node: 082.0113 deg
Eccentricity: 0.0023973
Arg of perigee: 173.0161 deg
Mean anomaly: 220.2879 deg
Mean motion: 14.10420997 rev/day
Decay rate: 2.317e-05 rev/day^2
Epoch rev: 71952
Checksum: 287
Satellite: OKEAN-0
Catalog number: 25860
Epoch time: 13122.46220303
Element set: 934
Inclination: 097.9859 deg
RA of node: 085.5376 deg
Eccentricity: 0.0000824
Arg of perigee: 092.3105 deg
Mean anomaly: 057.9590 deg
Mean motion: 14.74560392 rev/day
Decay rate: 8.41e-06 rev/day^2
Epoch rev: 74161
Checksum: 299
Satellite: NOAA-16
Catalog number: 26536
Epoch time: 13122.16820381
Element set: 190
Inclination: 099.0468 deg
RA of node: 174.4683 deg
Eccentricity: 0.0009604
Arg of perigee: 262.7707 deg
Mean anomaly: 173.0465 deg
Mean motion: 14.12867411 rev/day
Decay rate: 1.43e-06 rev/day^2
Epoch rev: 65007
Checksum: 293
Satellite: NOAA-17
Catalog number: 27453
Epoch time: 13122.75419308
Element set: 112
Inclination: 098.3135 deg
RA of node: 139.2370 deg
Eccentricity: 0.0010780
Arg of perigee: 303.2833 deg
Mean anomaly: 056.7796 deg
Mean motion: 14.24583803 rev/day
Decay rate: 1.04e-06 rev/day^2
Epoch rev: 56425
Checksum: 286
Satellite: NOAA-18
Catalog number: 28654
Epoch time: 13122.09752523
Element set: 596
Inclination: 099.0954 deg
RA of node: 089.6620 deg
Eccentricity: 0.0013790
Arg of perigee: 342.6363 deg
Mean anomaly: 156.6790 deg
Mean motion: 14.11805965 rev/day
Decay rate: 2.76e-06 rev/day^2
Epoch rev: 40955
Checksum: 332
Satellite: NOAA-19
Catalog number: 33591
Epoch time: 13122.10471777
Element set: 781
Inclination: 098.9010 deg
RA of node: 064.5397 deg
Eccentricity: 0.0013870
Arg of perigee: 195.7332 deg
Mean anomaly: 295.8826 deg
Mean motion: 14.11492013 rev/day
Decay rate: 3.50e-06 rev/day^2
Epoch rev: 21799
Checksum: 312
/EX
SB KEPS @ AMSAT $ORB13122.M
Orbital Elements 13122.MISC
HR AMSAT ORBITAL ELEMENTS FOR MANNED AND MISCELLANEOUS SATELLITES
FROM WA5QGD FORT WORTH,TX May 2, 2013
BID: ORB13122.M
TO ALL RADIO AMATEURS BT
Satellite: HUBBLE
Catalog number: 20580
Epoch time: 13121.47261588
Element set: 230
Inclination: 028.4691 deg
RA of node: 219.0490 deg
Eccentricity: 0.0002945
Arg of perigee: 209.0749 deg
Mean anomaly: 256.6760 deg
Mean motion: 15.03526634 rev/day
Decay rate: 2.733e-05 rev/day^2
Epoch rev: 6266
Checksum: 285
Satellite: ISS
Catalog number: 25544
Epoch time: 13122.90694444
Element set: 734
Inclination: 051.6485 deg
RA of node: 332.9137 deg
Eccentricity: 0.0007705
Arg of perigee: 230.2991 deg
Mean anomaly: 320.0573 deg
Mean motion: 15.51738862 rev/day
Decay rate: 1.3045e-04 rev/day^2
Epoch rev: 82767
Checksum: 301
